Погода в Мандрове

Россия / Белгородская область     50°17′46″N   38°15′02″E
темп.,
°C
ветер,
м/с
пор.,
м/с
влажн.,
%
обл.,
%
осадки,
мм/ч
давл.,
гПа
погр.,
м
17 сентября, пт
пт1700:00+8св22515 0.0 101910
03:00+7всв115611 0.0 101910
06:00+7в115996 0.0 101910
09:00+14ююв113841 0.0 1018277
12:00+19юз233081 0.0 10171613
15:00+21юз332554 0.0 10151955
18:00+18сз3534100 0.0 1015110
21:00+16всв3539100 0.0 1014111
18 сентября, сб
сб1800:00+15всв5942100 0.0 1015271
03:00+14в51045100 0.0 1015361
06:00+13в61049100 0.0 1015378
09:00+13в61050100 0.0 1015432
12:00+18вюв7836100 0.0 1015893
15:00+19в793298 0.0 1014811
18:00+16в10164197 0.0 1013501
21:00+14вюв91744100 0.0 1013488
19 сентября, вс
вс1900:00+14вюв81544100 0.0 1013470
03:00+14вюв7154572 0.0 1012533
06:00+14юв71450100 0.0 1012562
09:00+11юв61272100 1.1 1012524
12:00+11юв61191100 2.0 1012338
15:00+12юв51094100 5.3 1011543
18:00+14ююв4993100 0.7 1010450
21:00+14вюв379678 1.2 1010314
20 сентября, пн
пн2000:00+12ююв2498100 1.1 1009108
03:00+13ююв229863 1.4 100945
06:00+11ю339587 0.5 100952
09:00+13юз3690100 0.6 1009276
12:00+18юз465853 0.0 10091040
15:00+20ююз6104192 0.1 10092353
18:00+17зюз4746100 0.0 1010347
21:00+13ссз365614 0.0 1012356
21 сентября, вт
вт2100:00+9з22706 0.0 101315
03:00+8зюз237888 0.0 101471
06:00+10юз377299 0.0 1014423
09:00+11зюз5671100 0.0 1015759
12:00+13зюз5663100 0.0 10151107
15:00+12зюз5759100 0.0 10151383
18:00+11зюз3565100 0.0 1015519
21:00+9зсз2270100 0.0 101566